Theta_e
325 325 326 324 324 323 323 323 324 323 322 323 325 326 326 325 325 326 327 328 329 330 329 329 329 328 329 330 329 328 328 327 325 323 322 322 321 321 321 323 323 322 322 322
324 325 324 322 322 322 323 323 324 323 321 322 325 326 325 325 324 325 326 326 327 327 328 329 328 328 327 327 327 327 327 327 325 324 325 323 324 323 323 324 324 323 323 324
324 323 322 322 323 323 323 324 324 323 323 322 324 326 325 324 324 323 323 323 324 324 325 327 327 328 328 328 328 329 330 330 330 329 327 327 327 326 325 325 324 324 324 322
323 321 323 323 323 322 323 321 321 322 323 323 323 322 326 325 324 324 323 323 322 322 322 322 322 322 322 322 323 325 326 326 325 323 324 326 325 325 325 324 323 323 323 324
323 322 323 323 321 320 321 319 319 319 320 321 320 322 326 324 324 324 323 323 322 322 321 321 319 319 318 318 318 319 319 320 321 323 323 321 319 319 320 320 321 321 322 324
323 321 321 321 320 318 318 319 319 319 319 321 321 319 318 323 324 324 323 322 321 320 320 319 318 317 317 316 316 316 316 317 318 318 317 317 317 317 316 316 316 316 318 319
324 324 321 319 320 319 317 318 319 319 320 318 320 318 319 323 323 322 322 321 320 319 318 318 317 316 315 315 314 314 313 314 315 316 316 316 316 316 315 314 314 315 316 317
327 327 322 318 317 317 318 318 319 318 318 316 317 319 325 322 321 320 320 320 319 319 318 317 316 315 315 314 314 313 313 312 312 313 314 315 315 314 313 313 313 314 314 315
327 326 319 317 318 317 319 320 319 322 321 321 319 320 322 320 320 320 319 319 319 318 317 317 315 314 314 313 313 312 311 310 310 311 312 313 314 314 313 313 312 312 312 313
326 327 319 318 317 319 320 318 322 320 325 317 315 315 316 322 321 320 319 318 318 317 316 315 313 312 312 311 311 310 311 311 311 311 311 311 312 312 311 310 310 310 311 312
322 324 321 317 318 318 320 319 319 319 319 320 318 316 319 318 318 319 318 317 317 316 314 314 312 311 310 310 310 310 310 311 310 310 310 311 310 309 309 308 308 309 309 310
322 322 320 318 317 317 318 319 319 322 322 320 320 321 319 318 318 318 318 317 316 314 314 313 311 310 310 310 310 310 309 309 309 309 309 308 307 307 306 306 306 306 307 308
322 323 325 319 321 320 320 320 320 321 323 325 327 323 319 319 319 317 317 315 315 314 313 312 310 309 309 309 309 309 308 308 308 307 306 305 306 306 306 305 305 306 307 307
318 323 322 319 317 318 319 319 319 321 328 325 322 320 318 317 317 317 315 315 314 313 312 310 310 309 309 309 308 308 308 307 306 306 306 305 305 305 305 305 305 305 305 306
323 322 319 317 317 318 318 318 318 321 321 325 321 318 317 317 316 315 314 313 312 311 309 309 311 310 309 308 308 307 306 305 305 305 304 304 303 303 304 305 305 304 305 305
322 320 320 321 319 319 320 319 320 320 319 318 317 317 315 315 314 313 312 311 310 310 309 310 310 309 308 307 306 305 304 304 304 303 303 303 303 303 303 304 304 304 303 304
321 318 322 323 322 321 323 321 318 317 317 318 319 317 315 314 313 312 312 311 310 309 309 310 310 308 307 305 304 303 302 302 302 302 302 303 303 303 303 304 304 303 303 303
320 321 322 323 322 323 324 319 318 318 316 316 315 315 314 313 312 312 311 310 310 309 311 310 308 306 304 304 303 302 302 302 302 302 302 303 303 304 303 304 303 303 303 303
318 321 323 325 322 320 318 320 320 320 318 316 315 314 313 312 312 313 311 310 310 311 309 308 306 304 304 302 302 302 302 302 302 303 303 303 303 303 304 304 303 303 303 303
320 322 324 321 321 319 322 317 315 316 321 315 314 315 313 313 318 313 311 310 310 310 308 306 304 303 302 302 302 302 302 302 303 303 303 303 303 304 304 305 304 303 303 305
323 321 321 319 320 317 317 316 316 321 319 316 315 314 313 314 314 312 310 310 309 309 306 305 303 302 302 302 302 302 302 303 303 303 303 303 305 305 306 305 304 304 304 304
321 323 321 318 318 319 315 317 324 317 317 316 316 315 314 313 312 311 310 311 310 308 306 304 302 302 301 301 301 302 302 303 303 304 304 305 306 306 305 304 304 304 304 304
320 318 321 320 319 319 317 317 316 317 318 316 315 314 313 312 311 310 311 311 309 306 304 303 302 301 301 301 302 302 303 304 305 306 306 306 306 305 304 304 304 303 304 305
316 316 316 317 316 316 316 316 316 316 316 314 314 314 312 312 311 311 311 310 307 304 303 302 301 301 301 301 302 302 303 304 306 306 306 305 305 305 305 303 302 302 305 306
316 317 316 317 317 316 315 315 315 314 314 314 312 311 311 311 311 311 310 308 304 303 302 301 301 301 301 302 302 302 303 305 306 306 305 305 306 306 305 304 302 303 303 304
315 316 319 321 316 316 315 315 315 315 314 313 311 311 310 309 311 310 309 305 303 303 301 301 301 301 301 302 302 302 303 305 305 306 305 306 306 306 305 304 304 304 304 306
Wind_Speed
2 2 5 5 5 5 1 4 4 2 3 2 2 4 5 4 5 7 8 10 12 13 15 16 15 12 8 5 5 7 5 4 4 4 4 3 2 1 1 2 2 4 4 5
6 8 4 4 2 1 4 5 2 3 1 7 7 5 4 4 6 7 7 10 11 11 13 15 15 14 12 9 7 5 4 3 2 2 2 3 4 5 5 6 6 7 7 8
10 8 2 4 3 2 1 6 3 8 2 6 6 11 10 7 6 6 7 8 9 11 12 12 14 13 11 10 10 8 8 8 7 7 6 6 8 9 9 10 9 11 12 12
8 4 2 3 5 9 9 3 7 9 9 9 3 9 12 10 8 5 4 5 7 9 10 11 11 12 12 12 11 10 10 9 8 8 7 8 10 12 15 16 18 17 18 18
6 3 3 4 5 7 6 7 7 9 11 11 13 7 10 10 9 7 3 3 4 6 7 9 11 11 12 11 12 11 11 11 10 9 8 10 10 13 17 19 18 20 22 22
8 3 4 5 1 3 5 8 7 6 6 9 4 5 4 6 9 7 4 0 4 7 7 8 8 10 11 13 14 16 17 16 15 13 11 10 10 12 14 18 18 22 23 22
5 3 4 6 9 5 8 8 4 4 5 5 3 7 3 5 3 2 2 2 2 5 6 8 11 14 16 18 21 22 20 21 21 21 20 19 18 17 18 18 21 22 23 23
6 7 3 4 6 7 5 6 4 5 6 11 7 5 5 4 3 2 1 4 6 8 11 12 17 18 20 21 22 22 21 22 22 23 24 24 23 23 24 24 23 26 27 26
3 3 5 6 5 5 3 1 4 5 8 8 1 4 10 7 5 3 3 7 9 11 13 15 19 20 21 22 23 23 25 26 26 27 27 27 26 26 27 27 29 29 29 28
3 4 1 3 3 5 6 3 4 2 4 9 6 8 6 6 8 4 8 9 11 13 15 17 20 23 23 23 24 25 26 27 28 29 29 29 28 28 30 32 34 33 30 28
1 2 6 4 3 3 6 4 1 4 4 5 8 5 6 8 8 8 13 15 15 16 17 17 24 25 26 26 27 27 28 29 30 31 30 29 29 31 32 33 32 30 30 31
3 2 4 3 3 1 3 3 3 3 3 7 10 14 6 4 9 9 13 14 16 16 17 20 25 27 28 28 29 30 30 31 31 30 29 29 30 29 28 26 28 30 31 30
4 2 3 5 6 7 7 5 7 5 5 10 9 8 6 6 10 6 13 14 18 20 21 20 25 27 29 31 33 33 32 31 31 27 26 27 26 26 25 26 27 26 26 26
1 4 8 6 7 4 5 8 8 9 7 12 14 20 17 17 17 17 17 18 20 21 22 21 22 28 32 35 35 32 31 29 26 26 26 28 28 28 28 28 28 27 27 28
3 6 6 9 9 9 11 13 12 13 14 14 18 18 18 15 17 19 17 20 22 23 23 22 23 29 36 35 32 29 26 25 26 27 27 29 29 29 29 28 28 26 26 27
4 5 5 10 10 11 14 14 13 12 13 15 15 17 13 17 16 19 19 21 23 22 24 25 27 35 33 31 30 28 28 30 28 28 27 29 29 29 29 28 27 27 27 27
4 4 5 6 1 9 12 9 8 7 9 11 13 16 16 16 18 19 21 22 21 25 26 27 28 32 28 28 28 28 29 29 28 29 29 28 28 28 28 27 26 25 26 25
5 6 4 7 6 7 5 2 2 6 9 11 14 15 12 17 17 20 22 20 24 25 26 26 32 30 29 29 29 29 27 27 28 29 28 28 27 26 26 24 24 25 24 23
8 7 4 4 6 13 11 4 3 1 12 16 9 10 16 17 18 19 19 22 23 21 31 33 33 31 30 30 30 30 29 28 27 28 27 26 25 24 23 22 23 22 21 21
6 8 6 4 5 4 5 6 2 2 6 3 8 13 15 17 14 15 23 23 25 30 33 30 30 28 29 29 30 28 28 27 26 26 25 25 24 23 22 21 21 22 20 19
6 6 11 8 6 7 6 7 4 4 4 10 12 13 15 15 15 21 22 25 32 33 33 30 25 27 27 28 26 27 26 26 27 28 27 24 20 19 19 19 21 19 19 19
7 4 4 4 5 7 9 9 4 5 10 13 12 13 15 17 19 21 22 23 27 32 32 26 25 27 30 29 28 27 26 29 29 27 25 18 15 15 16 18 20 20 20 19
5 6 2 6 3 5 12 7 7 9 11 12 12 13 15 17 20 21 21 21 28 30 27 25 25 27 29 29 27 25 28 29 26 25 14 13 13 17 16 15 19 17 16 15
5 5 4 2 5 10 9 8 10 10 10 10 12 13 14 18 19 20 20 20 26 26 23 25 25 24 27 30 29 28 29 29 21 13 12 12 15 15 11 8 14 10 10 9
3 9 8 10 12 10 8 5 7 7 7 10 12 14 15 17 18 18 19 22 24 23 23 24 22 24 27 28 29 29 28 24 18 11 13 14 14 12 10 10 12 12 8 8
8 9 7 4 0 4 4 3 4 7 10 10 11 13 18 18 16 22 20 24 22 21 24 22 23 24 27 26 27 27 27 22 15 12 14 15 12 10 11 10 9 10 13 9
Wind_Direction
90 198 55 36 18 30 280 262 265 92 90 216 88 125 94 78 76 69 55 50 47 47 45 42 39 43 53 82 120 132 131 120 152 187 201 202 195 174 235 303 327 329 317 324
155 65 78 74 100 212 262 269 228 201 107 280 179 157 133 111 84 66 57 55 48 45 47 42 42 44 51 52 51 56 51 34 349 284 293 272 268 255 269 278 285 289 289 290
67 81 131 102 89 290 321 304 288 298 257 253 233 201 181 151 129 101 75 60 50 43 41 40 41 40 37 33 24 22 17 10 360 342 311 294 276 265 263 265 281 287 285 284
81 92 60 71 63 336 284 19 293 280 274 289 236 289 192 166 162 148 107 55 36 24 27 29 24 24 27 24 23 17 5 355 342 339 321 300 292 289 293 289 287 290 285 278
97 126 0 30 18 336 12 319 296 288 272 289 231 256 106 174 193 170 159 55 34 17 9 5 6 5 6 5 1 356 352 349 344 325 304 296 299 302 295 292 294 290 283 275
123 106 33 20 4 332 308 261 251 262 258 241 107 263 235 183 237 168 188 314 359 353 345 343 342 336 341 339 337 330 326 319 313 305 296 292 292 297 302 304 304 290 286 282
175 117 110 357 303 192 326 310 306 234 207 280 102 265 308 100 147 282 254 290 329 329 329 329 326 323 320 319 324 320 313 307 301 296 288 283 283 284 284 285 287 287 283 283
276 182 5 9 15 334 354 333 312 303 319 315 236 262 76 93 139 175 265 313 299 323 330 322 316 315 313 316 313 314 310 308 307 298 290 282 278 284 287 286 291 288 286 286
278 150 113 55 30 323 59 347 9 300 265 264 340 208 191 170 186 216 302 319 319 324 315 312 315 315 312 308 305 306 304 303 301 297 291 286 278 280 285 288 287 285 280 276
77 271 179 98 237 72 336 96 227 187 297 310 324 312 310 190 246 240 278 311 316 312 311 314 315 315 311 305 301 302 303 302 300 297 293 288 283 282 287 290 290 286 279 276
74 256 135 205 206 320 169 192 312 302 288 293 309 2 51 316 329 309 317 322 315 319 315 317 315 312 310 305 303 305 304 302 302 298 292 289 292 291 291 290 287 284 284 280
61 295 255 343 104 230 281 279 293 280 261 261 282 292 49 354 316 307 298 308 313 305 311 310 316 313 313 309 307 306 305 303 299 298 299 299 301 294 291 288 291 286 282 278
158 211 284 190 171 191 241 224 255 283 284 279 283 281 186 245 251 268 293 318 315 308 314 320 319 319 315 313 309 307 305 302 302 298 295 289 288 286 289 286 288 287 286 281
187 248 249 271 340 320 244 248 255 263 277 275 282 305 308 320 321 328 325 312 307 315 320 323 321 317 316 314 311 309 306 305 301 300 296 293 289 289 287 287 285 284 286 280
246 262 253 266 278 266 274 278 277 265 268 278 293 302 311 335 327 315 314 320 318 318 321 322 321 320 321 318 314 316 314 305 302 297 294 289 287 285 285 283 282 279 282 275
200 267 275 271 259 269 270 270 269 269 277 282 291 293 330 333 311 322 322 320 315 319 321 319 321 321 323 320 320 311 307 303 298 295 287 287 284 282 280 278 274 273 277 274
217 258 258 280 257 284 270 258 249 271 281 288 290 303 319 320 320 318 323 312 326 327 324 321 321 326 324 320 313 307 302 299 296 292 290 288 285 282 280 278 276 271 270 269
221 226 264 280 287 251 76 71 327 279 291 285 293 306 313 314 315 322 311 336 331 323 323 321 325 323 317 314 307 304 300 297 293 290 288 287 285 283 280 279 277 275 274 268
230 235 261 263 280 285 224 212 213 203 285 295 284 307 312 314 317 310 339 333 323 330 321 326 321 317 317 310 308 305 303 300 295 291 290 288 285 282 283 279 280 277 277 272
196 237 243 232 264 277 84 148 127 298 287 124 282 306 316 319 316 319 334 324 327 328 327 327 321 318 310 308 308 303 301 300 296 295 293 291 286 284 281 283 281 284 280 278
182 211 231 242 247 267 124 153 163 247 304 326 316 311 313 314 318 321 321 326 329 325 328 330 322 314 311 313 313 307 303 299 300 299 298 295 291 285 286 288 287 285 279 277
210 204 214 234 248 251 147 160 214 283 307 305 307 310 311 315 318 320 326 325 328 329 331 330 321 317 320 320 316 308 306 307 305 303 301 296 296 295 292 292 291 287 281 276
236 223 256 213 272 111 182 249 274 288 286 299 305 312 311 314 319 326 323 330 326 331 329 328 321 318 322 322 319 313 313 314 310 310 309 310 308 304 304 300 306 300 297 271
225 204 233 255 228 231 246 253 271 280 286 292 312 311 314 320 323 321 328 325 333 331 325 323 323 322 322 325 325 322 323 326 325 321 322 323 317 318 324 318 337 321 325 308
350 161 234 246 266 265 260 254 289 302 291 291 314 320 323 325 320 324 326 332 328 323 324 322 321 320 319 325 326 328 332 341 342 340 341 337 339 340 340 336 357 360 348 334
192 232 210 237 184 230 287 302 291 286 306 318 319 322 324 322 321 327 322 330 323 327 321 321 324 323 324 328 327 330 340 345 344 347 350 346 343 353 352 349 345 5 29 25